User: anonymous   Login
Location: Unspecified
(0.0000°N, 0.0000°E)
Time: 19:02:14
(UTC+00:00)
Language:

Orbcomm A7 (FM11) - Orbit

View from above orbital plane
View from above orbital plane
View from above satellite
View from above satellite

Ground track
Ground track

The orbit data is extracted from the following two-line orbital elements,

1 25114U 97084C   19340.53816648  .00000010  00000-0  49251-4 0  9995
2 25114  45.0162 265.3241 0004469 126.5253 233.6008 14.38943168150266
Epoch (UTC): 06 December 2019 12:54:57
Eccentricity: 0.0004469
inclination: 45.0162°
perigee height: 759 km
apogee height: 765 km
right ascension of ascending node: 265.3241°
argument of perigee: 126.5253°
revolutions per day: 14.38943168
mean anomaly at epoch: 233.6008°
orbit number at epoch: 15026

The dashed part of the orbit path shows where the satellite is in the earth's shadow,  

DLR